sat.trackr.live / text

‹ back to catalog

KUIPER-00451

NORAD 68945 · 2026-098AC

PAYLOAD ACTIVE UNKNOWN

§ Identity

Operator
Country
US
Launch date
2026-04-30
Launch site
FRGUI
Launch vehicle
Mass (kg)
RCS (m²)

External: N2YO · Heavens-Above · Gunter

§ Orbital elements

Epoch: 2026-09-19T14:56:15.964800Z

Period
97.30 min
Inclination
51.9015°
Eccentricity
0.0000352
Mean motion
14.79932494 rev/d
Perigee alt
629.3 km
Apogee alt
629.8 km
Semi-major
7,007.7 km
B*
1.4792e-4
RAAN
5.5641°
Arg perigee
133.4554°
Mean anomaly
226.6438°
Rev number
2,139

§ Raw data

KUIPER-004511 68945U 26098AC  26262.62240700  .00000907  00000+0  14792-3 0  99972 68945  51.9015   5.5641 0000352 133.4554 226.6438 14.79932494 21399

JSON: /api/v1/satellites/68945 · /tle

For live sub-satellite position, see the globe view (requires WebGL).

§ Visibility from observer

Set your observer location to see the next 7 days of passes ≥ 10°. The values pass through the URL so the page stays shareable.

No JS? Fill the form by hand. The geolocation button needs JavaScript.